Weather History for CYBW - November, 2011

Change the Weather History Date:

Wednesday, November 2, 2011

  Actual Average Record
Temperature  
Mean Temperature 32 °F -  
Max Temperature 45 °F 34 °F 60 °F (2008)
Min Temperature 18 °F 14 °F 6 °F (2006)
Degree Days  
Heating Degree Days 34    
Moisture  
Dew Point 11 °F    
Average Humidity 33    
Maximum Humidity 48    
Minimum Humidity 17    
Precipitation  
Precipitation 0.00 in - - ()
Sea Level Pressure  
Sea Level Pressure 30.01 in    
Wind  
Wind Speed 7 mph ()    
Max Wind Speed 15 mph    
Max Gust Speed 18 mph    
Visibility 15.0 miles    
Events      
Averages and records for this station are not official NWS values.
T = Trace of Precipitation, MM = Missing Value Source: Averaged Metar Reports

Daily Weather History Graph

Daily Weather History Graph

Search for Another Location

Airport or City:

Trip Planner

Search our weather history database for the weather conditions in past years. The results will help you decide how hot, cold, wet, or windy it might be!

Date:

Astronomy

Nov. 02, 2011 Rise Set
Actual Time 8:31 AM MDT 6:09 PM MDT
Civil Twilight 7:56 AM MDT 6:44 PM MDT
Nautical Twilight 7:17 AM MDT 7:23 PM MDT
Astronomical Twilight 6:38 AM MDT 8:02 PM MDT
Moon 2:51 PM MDT (11/2) No Moon Set
Length of Visible Light 10h 48m
Length of Day
9h 38m
Waxing Crescent, 51% of the Moon is Illuminated
Nov 2
Waxing Crescent
Nov 10
Full
Nov 18
Last Quarter
Nov 24
New
Dec 2
First Quarter

Hourly Weather History & Observations

Time (MDT) Temp. Windchill Dew Point Humidity Pressure Visibility Wind Dir Wind Speed Gust Speed Precip Events Conditions
5:00 AM 37.4 °F 29.3 °F 10.4 °F 33% 30.15 in 15.0 mi West 12.7 mph 18.4 mph N/A   Mostly Cloudy
6:00 AM 36 °F - 12 °F 23% 30.17 in 15 mi West 15.0 mph - -   Overcast
6:00 AM 37.4 °F 28.9 °F 12.2 °F 36% 30.17 in 15.0 mi West 13.8 mph - N/A   Overcast
7:00 AM 35.6 °F 30.7 °F 12.2 °F 38% 30.15 in 15.0 mi West 5.8 mph - N/A   Overcast
8:00 AM 32.0 °F 26.4 °F 14.0 °F 48% 30.12 in 15.0 mi WSW 5.8 mph - N/A   Overcast
9:00 AM 33.8 °F 28.6 °F 14.0 °F 44% 30.15 in 15.0 mi SW 5.8 mph - N/A   Mostly Cloudy
10:00 AM 37.4 °F 32.1 °F 14.0 °F 38% 30.13 in 30.0 mi South 6.9 mph - N/A   Overcast
11:00 AM 41.0 °F 37.1 °F 12.2 °F 31% 30.12 in 30.0 mi West 5.8 mph - N/A   Overcast
11:23 AM 35.6 °F 31.7 °F - N/A% - 30.0 mi South 4.6 mph - N/A   Overcast
12:00 PM 37 °F - 13 °F 24% 30.06 in 28 mi South 5.8 mph - -   Overcast
12:00 PM 37.4 °F 32.1 °F 14.0 °F 38% 30.06 in 30.0 mi South 6.9 mph - N/A   Overcast
1:00 PM 41.0 °F 35.2 °F 8.6 °F 26% 30.04 in 30.0 mi West 9.2 mph - N/A   Mostly Cloudy
2:00 PM 37.4 °F - 15.8 °F 41% 30.01 in 30.0 mi SW 2.3 mph - N/A   Mostly Cloudy
3:00 PM 44.6 °F 43.1 °F 15.8 °F 31% 29.96 in 30.0 mi ESE 3.5 mph - N/A   Mostly Cloudy
4:00 PM 44.6 °F 40.2 °F 14.0 °F 29% 29.94 in 30.0 mi South 8.1 mph - N/A   Mostly Cloudy
5:00 PM 44.6 °F 40.2 °F 10.4 °F 25% 29.90 in 30.0 mi SSE 8.1 mph - N/A   Overcast
6:00 PM 40 °F - 10 °F 17% 29.86 in 28 mi South 6.9 mph - -   Mostly Cloudy
6:00 PM 39.2 °F 35.0 °F 10.4 °F 31% 29.86 in 30.0 mi South 5.8 mph - N/A   Mostly Cloudy
7:00 PM 37.4 °F 33.8 °F 8.6 °F 30% 29.84 in 15.0 mi ESE 4.6 mph - N/A   Overcast
8:00 PM 39.2 °F - 5.0 °F 24% 29.82 in 15.0 mi Calm Calm - N/A   Overcast
9:00 PM 28.4 °F 24.6 °F 6.8 °F 40% 29.81 in 15.0 mi ESE 3.5 mph - N/A   Mostly Cloudy
10:00 PM 28.4 °F - 5.0 °F 37% 29.79 in 15.0 mi NE 2.3 mph - N/A   Mostly Cloudy